Location: Chagrin Falls Park
(41.4139°N, 81.3865°W)
Time: 08:35:57
(UTC+00:00)

USA 308 - Pass Details

Date: 29 October 2020
Orbit: 571 x 578 km, 54.0° (Epoch: 23 November)

Event Time Altitude Azimuth Distance (km) Brightness Sun altitude
Rises 23:31:39 0° 312° (NW) 2,786 7.0 -13.3°
Reaches altitude 10° 23:34:02 10° 321° (NW) 1,884 6.0 -13.7°
Maximum altitude 23:38:04 39° 31° (NNE) 866 3.5 -14.5°
Enters shadow 23:39:53 26° 81° (E) 1,147 3.8 -14.8°
